CW0630 Weather Reports


Display with metric or nautical units.
time (UTC)temp
F
wind
direction
speed
MPH
gust
MPH
rain 1hr
in
rain 24hr
in
rain mn
in
humidity
%
barometer
mb
20260901071025 74 173 0.0 0.0 0.00 0.00 0.00 91 1018.0
20260901061019 75 173 0.0 0.0 0.00 0.00 0.00 91 1018.4
20260901051029 76 173 0.0 0.0 0.00 0.00 0.00 88 1018.8
20260901041026 78 173 0.0 0.0 0.00 0.00 0.00 83 1018.8
20260901031020 79 159 2.0 2.0 0.00 0.00 0.00 81 1018.7
20260901021015 81 126 0.0 3.0 0.00 0.00 0.00 77 1018.9
20260901011024 82 63 0.0 1.0 0.00 0.00 0.00 74 1018.7
20260901001015 84 355 0.0 0.0 0.00 0.00 0.00 73 1018.3
20260831231011 84 360 2.0 2.0 0.00 0.00 0.00 71 1018.2
20260831221026 86 355 0.0 2.0 0.00 0.00 0.00 64 1018.2
20260831211051 90 67 2.0 2.0 0.00 0.00 0.00 55 1017.8
20260831201020 91 360 5.0 6.0 0.00 0.00 0.00 55 1018.0
20260831191019 91 15 8.0 8.0 0.00 0.00 0.00 58 1018.3
20260831181026 92 37 4.0 4.0 0.00 0.00 0.00 56 1018.8
20260831171017 92 287 0.0 1.0 0.00 0.00 0.00 64 1019.3
20260831161019 90 110 0.0 0.0 0.00 0.00 0.00 62 1019.7
20260831151026 87 101 0.0 2.0 0.00 0.00 0.00 68 1019.8
20260831141027 86 275 0.0 0.0 0.00 0.00 0.00 70 1019.8
20260831131019 84 235 0.0 0.0 0.00 0.00 0.00 75 1019.7
20260831121023 78 197 0.0 0.0 0.00 0.00 0.00 83 1019.4
20260831111011 72 188 0.0 0.0 0.00 0.00 0.00 91 1019.1
20260831101025 72 189 0.0 0.0 0.00 0.00 0.00 90 1018.8
20260831091025 74 189 0.0 0.0 0.00 0.00 0.00 87 1018.7
20260831081018 76 185 3.0 3.0 0.00 0.00 0.00 84 1018.7